When you browse on this site, cookies collect data to enhance your experience and personalize the content and advertising you see.
Visit our Privacy Policy to learn more. By continuing to use the site, you agree to this use of cookies and data.
  • In Netherlands
  • List of Countries
  • For 7 days
  • Water Temperature
  • Weather Map
  • Weather Widgets
  • user-avatar
    Login

    Hourly Weather La Rioja

    Today, 29 February, Saturday

    Time Temperature Precipitation Wind Pressure Humidity
    00:00 +26°C° 0 mm 1 mps 717 mmHg 48%
    01:00 +26°C° 0 mm 1 mps 717 mmHg 50%
    02:00 +26°C° 0 mm 1 mps 717 mmHg 52%
    03:00 +25°C° 0 mm 1 mps 718 mmHg 53%
    04:00 +25°C° 0 mm 1 mps 718 mmHg 54%
    05:00 +24°C° 0 mm 1 mps 718 mmHg 55%
    06:00 +25°C° 0 mm 1 mps 719 mmHg 51%
    07:00 +27°C° 0 mm 2 mps 719 mmHg 47%
    08:00 +28°C° 0 mm 2 mps 720 mmHg 43%
    09:00 +29°C° 0 mm 2 mps 720 mmHg 39%
    10:00 +31°C° 0 mm 2 mps 720 mmHg 34%
    11:00 +33°C° 0 mm 3 mps 720 mmHg 30%
    12:00 +34°C° 0 mm 3 mps 719 mmHg 28%
    13:00 +35°C° 0 mm 3 mps 718 mmHg 25%
    14:00 +36°C° 0 mm 3 mps 718 mmHg 22%
    15:00 +37°C° 0 mm 4 mps 717 mmHg 21%
    16:00 +37°C° 0 mm 5 mps 717 mmHg 21%
    17:00 +37°C° 0 mm 5 mps 716 mmHg 20%
    18:00 +35°C° 0 mm 5 mps 716 mmHg 23%
    19:00 +33°C° 0 mm 4 mps 716 mmHg 26%
    20:00 +30°C° 0 mm 4 mps 716 mmHg 29%
    21:00 +29°C° 0 mm 3 mps 717 mmHg 31%
    22:00 +28°C° 0 mm 3 mps 717 mmHg 34%
    23:00 +27°C° 0 mm 2 mps 717 mmHg 37%

    Tomorrow, 1 March, Sunday

    Time Temperature Precipitation Wind Pressure Humidity
    00:00 +27°C° 0 mm 2 mps 717 mmHg 38%
    01:00 +27°C° 0 mm 2 mps 717 mmHg 38%
    02:00 +26°C° 0 mm 2 mps 717 mmHg 39%
    03:00 +26°C° 0 mm 2 mps 716 mmHg 41%
    04:00 +25°C° 0 mm 2 mps 716 mmHg 42%
    05:00 +25°C° 0 mm 1 mps 716 mmHg 44%
    06:00 +26°C° 0 mm 2 mps 717 mmHg 42%
    07:00 +27°C° 0 mm 2 mps 717 mmHg 39%
    08:00 +28°C° 0 mm 3 mps 717 mmHg 37%
    09:00 +29°C° 0 mm 3 mps 717 mmHg 35%
    10:00 +31°C° 0 mm 3 mps 717 mmHg 33%
    11:00 +33°C° 0 mm 3 mps 717 mmHg 31%
    12:00 +34°C° 0 mm 4 mps 717 mmHg 30%
    13:00 +35°C° 0 mm 4 mps 716 mmHg 28%
    14:00 +36°C° 0 mm 4 mps 715 mmHg 26%
    15:00 +36°C° 0 mm 5 mps 715 mmHg 26%
    16:00 +36°C° 0 mm 5 mps 714 mmHg 27%
    17:00 +36°C° 0 mm 6 mps 714 mmHg 27%
    18:00 +34°C° 0 mm 5 mps 714 mmHg 32%
    19:00 +32°C° 0 mm 5 mps 714 mmHg 36%
    20:00 +29°C° 0 mm 4 mps 714 mmHg 41%
    21:00 +29°C° 0 mm 4 mps 715 mmHg 42%
    22:00 +28°C° 0 mm 3 mps 715 mmHg 42%
    23:00 +27°C° 0 mm 2 mps 716 mmHg 43%

    Day after tomorrow, 2 March, Monday

    Time Temperature Precipitation Wind Pressure Humidity
    00:00 +27°C° 0 mm 2 mps 716 mmHg 43%
    01:00 +26°C° 0 mm 2 mps 715 mmHg 43%
    02:00 +26°C° 0 mm 2 mps 715 mmHg 43%
    03:00 +26°C° 0 mm 2 mps 715 mmHg 43%
    04:00 +25°C° 0 mm 2 mps 715 mmHg 43%
    05:00 +25°C° 0 mm 2 mps 715 mmHg 43%
    06:00 +26°C° 0 mm 2 mps 715 mmHg 42%
    07:00 +27°C° 0 mm 3 mps 716 mmHg 40%
    08:00 +28°C° 0 mm 3 mps 716 mmHg 38%
    09:00 +29°C° 0 mm 3 mps 716 mmHg 36%
    10:00 +30°C° 0 mm 3 mps 716 mmHg 34%
    11:00 +33°C° 0 mm 3 mps 716 mmHg 32%
    12:00 +34°C° 0 mm 3 mps 716 mmHg 31%
    13:00 +35°C° 0 mm 3 mps 715 mmHg 30%
    14:00 +36°C° 0 mm 2 mps 714 mmHg 29%
    15:00 +36°C° 0 mm 3 mps 714 mmHg 28%
    16:00 +36°C° 0 mm 3 mps 713 mmHg 28%
    17:00 +36°C° 0 mm 3 mps 713 mmHg 28%
    18:00 +35°C° 0 mm 3 mps 713 mmHg 31%
    19:00 +33°C° 0 mm 3 mps 713 mmHg 35%
    20:00 +30°C° 0 mm 4 mps 714 mmHg 39%
    21:00 +29°C° 0 mm 3 mps 714 mmHg 42%
    22:00 +28°C° 0 mm 2 mps 714 mmHg 44%
    23:00 +28°C° 0 mm 1 mps 715 mmHg 47%

    3 March, Tuesday

    Time Temperature Precipitation Wind Pressure Humidity
    00:00 +27°C° 0 mm 1 mps 715 mmHg 48%
    01:00 +27°C° 0 mm 1 mps 714 mmHg 49%
    02:00 +26°C° 0 mm 1 mps 714 mmHg 51%
    03:00 +26°C° 0 mm 1 mps 714 mmHg 50%
    04:00 +25°C° 0 mm 1 mps 714 mmHg 50%
    05:00 +25°C° 0 mm 1 mps 714 mmHg 50%
    06:00 +26°C° 0 mm 2 mps 714 mmHg 46%
    07:00 +27°C° 0 mm 2 mps 715 mmHg 42%
    08:00 +29°C° 0 mm 2 mps 715 mmHg 38%
    09:00 +30°C° 0 mm 2 mps 715 mmHg 36%
    10:00 +31°C° 0 mm 2 mps 715 mmHg 33%
    11:00 +34°C° 0 mm 3 mps 715 mmHg 30%
    12:00 +35°C° 0 mm 3 mps 714 mmHg 29%
    13:00 +36°C° 0 mm 2 mps 714 mmHg 28%
    14:00 +37°C° 0 mm 2 mps 713 mmHg 26%
    15:00 +37°C° 0 mm 2 mps 713 mmHg 26%
    16:00 +37°C° 0 mm 2 mps 712 mmHg 26%
    17:00 +36°C° 0 mm 1 mps 711 mmHg 26%
    18:00 +34°C° 0 mm 1 mps 712 mmHg 30%
    19:00 +34°C° 0 mm 2 mps 712 mmHg 34%
    20:00 +31°C° 0 mm 2 mps 712 mmHg 37%
    21:00 +30°C° 0 mm 1 mps 713 mmHg 40%
    22:00 +29°C° 0 mm 1 mps 713 mmHg 42%
    23:00 +28°C° 0 mm 1 mps 714 mmHg 45%

    4 March, Wednesday

    Time Temperature Precipitation Wind Pressure Humidity
    00:00 +28°C° 0 mm 1 mps 714 mmHg 45%
    01:00 +27°C° 0 mm 1 mps 714 mmHg 45%
    02:00 +27°C° 0 mm 1 mps 714 mmHg 45%
    03:00 +27°C° 0 mm 1 mps 713 mmHg 46%
    04:00 +26°C° 0 mm 1 mps 713 mmHg 47%
    05:00 +26°C° 0 mm 2 mps 713 mmHg 48%
    06:00 +27°C° 0 mm 2 mps 714 mmHg 44%
    07:00 +28°C° 0 mm 2 mps 715 mmHg 41%
    08:00 +30°C° 0 mm 2 mps 715 mmHg 38%
    09:00 +31°C° 0 mm 3 mps 715 mmHg 35%
    10:00 +34°C° 0 mm 3 mps 715 mmHg 32%
    11:00 +35°C° 0 mm 3 mps 715 mmHg 30%
    12:00 +36°C° 0 mm 3 mps 715 mmHg 28%
    13:00 +37°C° 0 mm 2 mps 714 mmHg 26%
    14:00 +38°C° 0 mm 2 mps 714 mmHg 24%
    15:00 +38°C° 0 mm 2 mps 713 mmHg 23%
    16:00 +39°C° 0 mm 2 mps 713 mmHg 22%
    17:00 +39°C° 0 mm 1 mps 712 mmHg 21%
    18:00 +36°C° 0 mm 1 mps 712 mmHg 25%
    19:00 +33°C° 0 mm 1 mps 712 mmHg 28%
    20:00 +31°C° 0 mm 2 mps 712 mmHg 32%
    21:00 +30°C° 0 mm 1 mps 713 mmHg 34%
    22:00 +29°C° 0 mm 1 mps 713 mmHg 36%
    23:00 +28°C° 0 mm 1 mps 714 mmHg 38%

    5 March, Thursday

    Time Temperature Precipitation Wind Pressure Humidity
    00:00 +28°C° 0 mm 1 mps 713 mmHg 38%
    01:00 +28°C° 0 mm 1 mps 713 mmHg 38%
    02:00 +27°C° 0 mm 1 mps 713 mmHg 38%
    03:00 +27°C° 0 mm 1 mps 713 mmHg 39%
    04:00 +27°C° 0 mm 1 mps 713 mmHg 39%
    05:00 +26°C° 0 mm 2 mps 713 mmHg 40%
    06:00 +28°C° 0 mm 2 mps 713 mmHg 37%
    07:00 +29°C° 0 mm 2 mps 714 mmHg 35%
    08:00 +31°C° 0 mm 2 mps 714 mmHg 32%
    09:00 +33°C° 0 mm 3 mps 714 mmHg 30%
    10:00 +35°C° 0 mm 3 mps 714 mmHg 28%
    11:00 +36°C° 0 mm 3 mps 714 mmHg 26%
    12:00 +37°C° 0 mm 3 mps 714 mmHg 24%
    13:00 +38°C° 0 mm 2 mps 714 mmHg 23%
    14:00 +39°C° 0 mm 2 mps 713 mmHg 21%
    15:00 +40°C° 0 mm 2 mps 712 mmHg 21%
    16:00 +40°C° 0 mm 2 mps 712 mmHg 20%
    17:00 +40°C° 0 mm 2 mps 711 mmHg 20%
    18:00 +38°C° 0 mm 2 mps 711 mmHg 24%
    19:00 +34°C° 0 mm 1 mps 711 mmHg 28%
    20:00 +32°C° 0 mm 1 mps 711 mmHg 32%
    21:00 +31°C° 0 mm 1 mps 712 mmHg 34%
    22:00 +30°C° 0 mm 1 mps 712 mmHg 36%
    23:00 +30°C° 0 mm 1 mps 713 mmHg 37%
    Show more